Effective Sunday, March 17, 2024, the National Weather Service National Data Buoy Center will discontinue its Dial-A-Buoy Interactive Voice Response system. For more information, see Service Change Notice 24-06 (PDF).

Station NTKM3 - 8449130 - Nantucket Island, MA Image indicating link to RSS feed of recent meteorological observations for station NTKM3


Conditions at NTKM3 as of
(8:30 pm EST on 03/02/2024)
0130 GMT on 03/03/2024:
     

Click on the graph icon in the table below to see a time series plot of the last five days of that observation.

5-day plot - Wind Direction Wind Direction (WDIR): SE ( 140 deg true )
5-day plot - Wind Speed Wind Speed (WSPD): 14.0 kts
5-day plot - Wind Gust Wind Gust (GST): 22.9 kts
5-day plot - Atmospheric Pressure Atmospheric Pressure (PRES):30.27 in
5-day plot - Air Temperature Air Temperature (ATMP): 46.2 °F
5-day plot - Water Temperature Water Temperature (WTMP): 39.9 °F
5-day plot - Wind Chill Wind Chill (CHILL): 39.6 °F
5-day plot - Wind Speed at 10 Meters Wind Speed at 10 meters (WSPD10M): 13.6 kts
5-day plot - Wind Speed at 20 Meters Wind Speed at 20 meters (WSPD20M): 15.5 kts
5-day plot -  Wind Speed, Wind Gust and Atmospheric Pressure Combined plot of Wind Speed, Gust, and Air Pressure
NOS Water Level Observation Network Water Level
Previous observations
TIME
(EST)
5-day plot - Wind Direction
WDIR
 
5-day plot - Wind Speed
WSPD
kts
5-day plot - Wind Gust
GST
kts
5-day plot - Wave Height
WVHT
ft
5-day plot - Dominant Wave Period
DPD
sec
5-day plot - Average Wave Period
APD
sec
5-day plot - Mean Wave Direction
MWD
 
5-day plot - Atmospheric Pressure
PRES
in
5-day plot - Pressure Tendency
PTDY
in
5-day plot - Air Temperature
ATMP
°F
5-day plot - Water Temperature
WTMP
°F
5-day plot - Dew Point
DEWP
°F
5-day plot - Salinity
SAL
psu
5-day plot - Visibility
VIS
nmi
5-day plot - Tide (above MLLW)
TIDE
ft
2024-03-02 08:24 pm SE 15.0 21.0----30.27- 46.2 39.9----
2024-03-02 08:18 pm SE 14.0 20.0----30.27- 46.2 39.9----
2024-03-02 08:12 pm SE 14.0 22.9----30.27- 46.4 39.9----
2024-03-02 08:06 pm SE 13.0 21.0----30.27- 46.2 39.9----
2024-03-02 08:00 pm SE 14.0 20.0----30.28-0.06 46.4 39.9----
2024-03-02 07:54 pm SE 12.0 22.9----30.28- 46.2 39.9----
2024-03-02 07:48 pm SE 15.0 20.0----30.28- 46.2 39.9----
2024-03-02 07:42 pm SE 14.0 22.0----30.28- 46.0 39.9----
2024-03-02 07:36 pm SE 14.0 21.0----30.29- 45.9 39.9----
2024-03-02 07:30 pm SE 15.0 22.9----30.29- 45.9 39.9----
2024-03-02 07:24 pm SE 15.0 22.0----30.29- 46.0 39.9----
2024-03-02 07:18 pm SE 15.0 20.0----30.30- 46.0 39.9----
2024-03-02 07:12 pm SE 15.0 22.9----30.30- 45.9 39.9----
2024-03-02 07:06 pm SE 15.0 21.0----30.30- 46.0 39.9----
2024-03-02 07:00 pm SE 13.0 25.1----30.31-0.05 46.0 39.9----
2024-03-02 06:54 pm SE 13.0 21.0----30.31- 45.9 39.7----
2024-03-02 06:48 pm SE 11.1 20.0----30.31-- 39.7----
2024-03-02 06:42 pm SE 8.9 19.0----30.31-- 39.7----
2024-03-02 06:36 pm SE 12.0 17.1----30.32-- 39.6----
2024-03-02 06:30 pm SE 12.0 18.1----30.32- 45.9 39.6----
2024-03-02 06:24 pm SE 12.0 20.0----30.32- 45.9 39.6----
2024-03-02 06:00 pm SE 13.0 20.0----30.32- 46.0 39.9----
2024-03-02 05:54 pm SE 11.1 18.1----30.32- 45.9 39.9----
2024-03-02 05:48 pm SE 8.9 17.1----30.33- 45.7 39.9----
2024-03-02 05:42 pm SE 12.0 20.0----30.33- 45.5 39.7----
2024-03-02 05:36 pm SE 9.9 14.0----30.34- 45.3 39.6----
2024-03-02 05:30 pm SE 8.9 15.9----30.34-- 39.6----
2024-03-02 05:24 pm SE 11.1 17.1----30.34-- 39.6----
2024-03-02 05:18 pm SE 9.9 15.9----30.34-- 39.6----
2024-03-02 05:12 pm SE 9.9 15.9----30.34-- 39.4----
2024-03-02 05:06 pm SE 9.9 15.9----30.34-- 39.4----
2024-03-02 05:00 pm SE 11.1 15.9----30.34-0.05 45.5 39.4----
2024-03-02 04:54 pm SE 8.9 15.9----30.34- 45.5 39.4----
2024-03-02 04:48 pm SE 8.0 15.9----30.34- 45.9 39.4----
2024-03-02 04:42 pm SE 8.9 18.1----30.35- 45.9 39.4----
2024-03-02 04:36 pm SE 8.9 15.0----30.35- 45.9 39.4----
2024-03-02 04:30 pm SE 9.9 15.0----30.35- 46.0-----
2024-03-02 04:24 pmSSE 8.0 14.0----30.35- 45.9-----
2024-03-02 04:18 pmSSE 6.0 14.0----30.35- 45.9 39.4----
2024-03-02 04:12 pmSSE 8.9 17.1----30.35- 46.0 39.2----
2024-03-02 04:06 pmSSE 8.9 14.0----30.35- 46.0 39.2----
2024-03-02 04:00 pmSSE 8.9 18.1----30.36-0.06 46.2 39.2----
2024-03-02 03:54 pmSSE 8.0 15.0----30.36- 46.0 39.2----
2024-03-02 03:48 pmSSE 7.0 15.9----30.36-- 39.2----
2024-03-02 03:42 pmSSE 8.0 15.0----30.36-- 39.2----
2024-03-02 03:36 pm SE 8.0 15.0----30.36-- 39.2----
2024-03-02 03:30 pm SE 8.9 14.0----30.36- 45.9 39.2----
2024-03-02 03:24 pm SE 9.9 15.0----30.36- 45.7 39.2----
2024-03-02 03:18 pmSSE 8.9 15.0----30.36- 45.9 39.2----
2024-03-02 03:12 pmSSE 8.9 14.0----30.37- 45.9 39.4----
2024-03-02 03:06 pm SE 7.0 19.0----30.37- 46.0 39.4----
2024-03-02 03:00 pm--------- 46.2-----
2024-03-02 02:54 pm--------- 46.2-----
2024-03-02 02:48 pmSSE 8.0 15.0----30.38- 46.2 39.4----
2024-03-02 02:42 pm SE 8.0 14.0----30.38- 46.2 39.4----
2024-03-02 02:36 pmSSE 8.9 17.1----30.38- 46.2 39.4----
2024-03-02 02:30 pm SE 9.9 17.1----30.38- 46.2 39.4----
2024-03-02 02:24 pm SE 8.0 15.9----30.38- 46.4 39.4----
2024-03-02 02:18 pmSSE 8.0 17.1----30.39- 46.2 39.4----
2024-03-02 02:12 pmSSE 6.0 11.1----30.39- 45.9 39.4----
2024-03-02 02:06 pm SE 6.0 12.0----30.39- 45.7 39.4----
2024-03-02 02:00 pmSSE 8.0 18.1----30.39-0.08 45.7 39.2----
2024-03-02 01:54 pmSSE 8.0 12.0----30.40- 45.7 39.2----
2024-03-02 01:48 pmSSE 8.9 18.1----30.40- 45.7 39.2----
2024-03-02 01:42 pmSSE 12.0 19.0----30.40- 45.9 39.2----
2024-03-02 01:36 pmSSE 8.0 18.1----30.40- 46.0 39.2----
2024-03-02 01:30 pmSSE 8.0 18.1----30.40- 46.0 39.2----
2024-03-02 01:24 pmSSE 8.0 18.1----30.40- 46.2 39.2----
2024-03-02 01:18 pmSSE 7.0 15.9----30.41- 46.2 39.4----
2024-03-02 01:12 pm SE 7.0 13.0----30.41- 46.4 39.4----
2024-03-02 01:06 pm SE 7.0 12.0----30.41- 46.4 39.4----
2024-03-02 01:00 pmSSE 8.0 18.1----30.42-0.07 45.9 39.6----
2024-03-02 12:54 pmSSE 8.9 15.0----30.42- 45.9 39.6----
2024-03-02 12:48 pmSSE 8.0 15.9----30.43- 45.7 39.7----
2024-03-02 12:42 pmSSE 6.0 15.0----30.43- 45.7 39.7----
2024-03-02 12:36 pmSSE 8.9 15.9----30.43- 45.9 39.7----
2024-03-02 12:30 pmSSE 8.0 15.9----30.43- 46.0 39.7----
2024-03-02 12:24 pmSSE 8.0 14.0----30.44- 46.2 39.7----
2024-03-02 12:18 pmSSE 8.9 15.0----30.44- 46.0 39.7----
2024-03-02 12:12 pmSSE 9.9 17.1----30.44- 46.0 39.7----
2024-03-02 12:06 pm S 11.1 17.1----30.45- 46.2 39.6----
2024-03-02 12:00 pmSSE 8.9 17.1----30.45-0.07 46.4 39.6----
2024-03-02 11:54 amSSE 9.9 18.1----30.45- 46.4 39.6----
2024-03-02 11:48 amSSE 8.0 15.9----30.45- 46.4 39.6----
2024-03-02 11:42 amSSE 8.0 17.1----30.45- 46.2 39.4----
2024-03-02 11:36 amSSE 8.9 17.1----30.46- 46.2 39.4----
2024-03-02 11:30 amSSE 9.9 19.0----30.46- 46.2 39.2----
2024-03-02 11:24 amSSE 11.1 14.0----30.46- 46.4 39.2----
2024-03-02 11:18 amSSE 8.0 17.1----30.46- 46.4 39.2----
2024-03-02 11:12 amSSE 8.9 14.0----30.47- 46.2 39.0----
2024-03-02 11:06 amSSE 7.0 15.9----30.47- 46.2 39.0----
2024-03-02 11:00 amSSE 7.0 18.1----30.47-0.06 46.0 39.0----
2024-03-02 10:54 amSSE 8.0 17.1----30.47- 45.9 39.0----
2024-03-02 10:48 amSSE 8.0 15.9----30.47- 45.9 39.0----
2024-03-02 10:42 am SE 8.9 15.0----30.47- 45.7 39.0----
2024-03-02 10:36 amSSE 8.9 14.0----30.48- 45.5 39.0----
2024-03-02 10:30 amSSE 8.9 18.1----30.48-- 38.8----
2024-03-02 10:24 am SE 8.9 15.9----30.49-- 38.8----
2024-03-02 10:18 amSSE 9.9 15.0----30.49- 45.5 38.8----
2024-03-02 10:12 amSSE 8.0 12.0----30.49- 45.3 38.7----
2024-03-02 10:06 amSSE 7.0 15.9----30.50- 45.1 38.7----
2024-03-02 10:00 amSSE 7.0 14.0----30.50-0.05 44.8 38.7----
2024-03-02 09:54 amSSE 7.0 17.1----30.50- 44.8 38.7----
2024-03-02 09:48 amSSE 8.0 15.0----30.50- 44.6 38.7----
2024-03-02 09:42 amSSE 7.0 13.0----30.50- 44.4 38.7----
2024-03-02 09:36 amSSE 8.0 15.0----30.50- 44.4 38.7----
2024-03-02 09:30 amSSE 6.0 12.0----30.51- 44.2 38.7----
2024-03-02 09:24 amSSE 7.0 12.0----30.51- 44.1 38.7----
2024-03-02 09:18 amSSE 7.0 13.0----30.51- 43.7 38.7----
2024-03-02 09:12 amSSE 5.1 12.0----30.51- 43.5 38.7----
2024-03-02 09:06 am SE 8.0 15.0----30.51- 43.3 38.7----
2024-03-02 09:00 am SE 7.0 13.0----30.52-0.03 43.3 38.7----
2024-03-02 08:54 amSSE 8.0 14.0----30.52- 43.2 38.7----
2024-03-02 08:48 amSSE 8.0 12.0----30.53- 43.0 38.7----
2024-03-02 08:42 amSSE 7.0 12.0----30.53- 43.0 38.7----
2024-03-02 08:36 amSSE 6.0 11.1----30.53- 42.8 38.7----
2024-03-02 08:30 amSSE 7.0 12.0----30.52- 42.8 38.7----
2024-03-02 08:24 amSSE 6.0 12.0----30.53- 42.6 38.7----
2024-03-02 08:18 am SE 7.0 13.0----30.53- 42.4 38.7----
2024-03-02 08:12 amSSE 5.1 9.9----30.53- 42.3 38.7----
2024-03-02 08:06 amSSE 6.0 9.9----30.53- 42.1 38.7----
2024-03-02 08:00 amSSE 5.1 8.0----30.54-0.02 41.9 38.7----
2024-03-02 07:54 amSSE 2.9 9.9----30.54- 41.7 38.7----
2024-03-02 07:48 amSSE 6.0 9.9----30.54-- 38.7----
2024-03-02 07:42 amSSE 6.0 9.9----30.54-- 38.7----
2024-03-02 07:36 amSSE 6.0 12.0----30.54-- 38.7----
2024-03-02 07:30 amSSE 5.1 9.9----30.55- 41.0 38.7----
2024-03-02 07:24 amSSE 4.1 11.1----30.55- 40.8 38.7----
2024-03-02 07:18 amSSE 5.1 12.0----30.55- 40.6 38.7----
2024-03-02 07:12 amSSE 5.1 8.9----30.55- 40.5 38.7----
2024-03-02 07:06 amSSE 5.1 8.0----30.55- 40.3 38.7----
2024-03-02 07:00 amSSE 5.1 9.9----30.55-0.01 40.3 38.7----
2024-03-02 06:54 amSSE 5.1 9.9----30.55- 40.1 38.7----
2024-03-02 06:48 amSSE 6.0 8.9----30.55- 39.9 38.7----
2024-03-02 06:42 amSSE 5.1 8.9----30.55- 39.7 38.7----
2024-03-02 06:36 amSSE 5.1 7.0----30.55- 39.7 38.7----
2024-03-02 06:30 am-------30.55-------
2024-03-02 06:24 am-------30.55-------
2024-03-02 06:18 amSSE 5.1 8.0----30.55- 39.6 38.7----
2024-03-02 06:12 amSSE 5.1 9.9----30.55- 39.6 38.7----
2024-03-02 06:06 am S 5.1 8.0----30.55- 39.6 38.5----
2024-03-02 06:00 amSSE 4.1 8.9----30.55-0.01- 38.5----
2024-03-02 05:54 amSSE 6.0 8.9----30.56-- 38.5----
2024-03-02 05:48 am---------- 38.7----
2024-03-02 05:42 am---------- 38.5----
2024-03-02 05:36 am---------- 38.7----
2024-03-02 05:30 amSSE 5.1 8.9----30.56- 39.4 38.5----
2024-03-02 05:24 am S 6.0 8.9----30.56- 39.4 38.5----
2024-03-02 05:18 amSSE 5.1 8.9----30.56-- 38.5----
2024-03-02 05:12 amSSE 4.1 8.0----30.56-- 38.7----
2024-03-02 05:06 am S 5.1 8.0----30.56-- 38.7----
2024-03-02 05:00 am S 4.1 8.9----30.55-0.02 38.8 38.7----
2024-03-02 04:54 amSSE 4.1 8.0----30.55- 38.8 38.5----
2024-03-02 04:48 am S 4.1 6.0----30.55- 38.7 38.7----
2024-03-02 04:42 am S 4.1 7.0----30.56- 38.7 38.5----
2024-03-02 04:36 am S 2.9 7.0----30.56- 38.7 38.5----
2024-03-02 04:30 am S 4.1 7.0----30.56- 38.5 38.5----
2024-03-02 04:24 am S 4.1 7.0----30.56- 38.5 38.5----
2024-03-02 04:18 am S 5.1 7.0----30.56- 38.5 38.7----
2024-03-02 04:12 am S 4.1 7.0----30.56- 38.3 38.7----
2024-03-02 04:06 am S 4.1 7.0----30.56- 38.3 38.7----
2024-03-02 04:00 am S 4.1 6.0----30.56-0.03 38.3 38.7----
2024-03-02 03:54 am S 4.1 7.0----30.56- 38.3 38.5----
2024-03-02 03:48 am S 5.1 7.0----30.56- 38.3 38.7----
2024-03-02 03:42 am S 5.1 7.0----30.56- 38.3 38.7----
2024-03-02 03:36 am S 4.1 6.0----30.56- 38.3 38.7----
2024-03-02 03:30 am S 4.1 6.0----30.56- 38.1 38.7----
2024-03-02 03:24 am S 2.9 7.0----30.56- 38.1 38.5----
2024-03-02 03:18 am S 1.9 6.0----30.56- 38.1 38.7----
2024-03-02 03:12 am S 2.9 6.0----30.56- 38.1 38.7----
2024-03-02 03:06 am S 4.1 7.0----30.57- 38.1 38.5----
2024-03-02 03:00 am S 4.1 6.0----30.57-0.02 38.1 38.7----
2024-03-02 02:54 am S 4.1 5.1----30.57- 37.9 38.5----
2024-03-02 02:48 am S 4.1 6.0----30.57- 37.9 38.7----
2024-03-02 02:42 am S 4.1 5.1----30.57- 37.9 38.5----
2024-03-02 02:36 am S 2.9 6.0----30.58- 37.9 38.5----
2024-03-02 02:30 am S 4.1 7.0----30.57- 38.1-----
2024-03-02 02:24 amSSW 4.1 7.0----30.57- 38.1-----
2024-03-02 02:18 amSSW 5.1 7.0----30.58- 38.1 38.7----
2024-03-02 02:12 amSSW 4.1 7.0----30.58- 38.3 38.7----
2024-03-02 02:06 amSSW 5.1 7.0----30.58- 38.1 38.7----
2024-03-02 02:00 amSSW 5.1 7.0----30.58-0.01 38.1 38.7----
2024-03-02 01:54 am S 4.1 6.0----30.58- 37.9 38.7----
2024-03-02 01:48 am S 2.9 6.0----30.58- 37.9 38.7----
2024-03-02 01:42 am S 2.9 5.1----30.58- 37.9 38.7----
2024-03-02 01:36 amSSW 2.9 6.0----30.59- 37.9 38.7----
2024-03-02 01:30 amSSW 4.1 6.0----30.59- 37.9 38.7----
2024-03-02 01:24 amSSW 2.9 8.0----30.59- 37.9 38.7----
2024-03-02 01:18 am S 4.1 6.0----30.59- 37.9-----
2024-03-02 01:12 amSSW 2.9 6.0----30.59- 37.9-----
2024-03-02 01:06 am S 4.1 8.0----30.59- 37.9-----
2024-03-02 01:00 amSSW 4.1 6.0----30.59-0.01 37.9 38.7----
2024-03-02 12:54 amSSW 4.1 7.0----30.59- 37.9 38.7----
2024-03-02 12:48 amSSW 4.1 7.0----30.59- 37.9 38.7----
2024-03-02 12:42 amSSW 4.1 8.0----30.59- 37.9 38.7----
2024-03-02 12:36 amSSW 5.1 7.0----30.59- 37.9 38.7----
2024-03-02 12:30 amSSW 4.1 6.0----30.59- 37.8 38.8----
2024-03-02 12:24 amSSW 4.1 7.0----30.59- 37.8 38.8----
2024-03-02 12:18 amSSW 5.1 7.0----30.59- 37.8 38.8----
2024-03-02 12:12 amSSW 5.1 8.0----30.59- 37.8 38.8----
2024-03-02 12:06 amSSW 5.1 7.0----30.59- 37.9 38.8----
2024-03-02 12:00 amSSW 4.1 8.9----30.59-0.01 37.9 39.0----
2024-03-01 11:54 pmSSW 6.0 8.9----30.59- 37.9 39.0----
2024-03-01 11:48 pmSSW 6.0 8.9----30.59- 37.8 39.0----
2024-03-01 11:42 pmSSW 5.1 8.9----30.59- 37.8 39.0----
2024-03-01 11:36 pm SW 5.1 8.9----30.59- 37.8 39.0----
2024-03-01 11:30 pm SW 5.1 7.0----30.59- 37.8 39.0----
2024-03-01 11:24 pm SW 5.1 8.0----30.60- 37.8 39.2----
2024-03-01 11:18 pm SW 2.9 8.0----30.59- 37.8 39.2----
2024-03-01 11:12 pm SW 4.1 8.0----30.60- 37.8 39.2----
2024-03-01 11:06 pm SW 6.0 8.0----30.60- 37.8 39.2----
2024-03-01 11:00 pm SW 5.1 9.9----30.59-0.02 37.8 39.2----
2024-03-01 10:54 pm SW 5.1 6.0----30.60- 37.8 39.2----
2024-03-01 10:48 pmSSW 5.1 8.0----30.60- 37.8 39.4----
2024-03-01 10:42 pmSSW 6.0 8.0----30.60- 37.8 39.4----
2024-03-01 10:36 pmSSW 5.1 7.0----30.60- 37.8 39.4----
2024-03-01 10:30 pmSSW 4.1 8.9----30.60- 37.8 39.4----
2024-03-01 10:24 pmSSW 4.1 8.9----30.60- 37.8 39.4----
2024-03-01 10:18 pmSSW 7.0 9.9----30.60- 37.8 39.4----
2024-03-01 10:12 pm SW 7.0 8.9----30.60- 37.8 39.4----
2024-03-01 10:06 pm SW 5.1 11.1----30.60- 37.6 39.4----
2024-03-01 10:00 pm SW 7.0 11.1----30.60-0.02 37.6 39.6----
2024-03-01 09:54 pm SW 6.0 8.9----30.60- 37.6 39.6----
2024-03-01 09:48 pm SW 5.1 12.0----30.60- 37.6 39.6----
2024-03-01 09:42 pm SW 5.1 9.9----30.60- 37.6 39.6----
2024-03-01 09:36 pm SW 6.0 11.1----30.60- 37.6 39.6----
2024-03-01 09:30 pm SW 7.0 9.9----30.60- 37.6 39.6----
2024-03-01 09:24 pm SW 6.0 9.9----30.60- 37.4 39.6----
2024-03-01 09:18 pm SW 5.1 9.9----30.60- 37.4 39.6----
2024-03-01 09:12 pm SW 5.1 11.1----30.60- 37.2 39.6----
2024-03-01 09:06 pm SW 5.1 12.0----30.60- 37.2 39.6----
2024-03-01 09:00 pm SW 7.0 8.9----30.60-0.01 37.2 39.6----
2024-03-01 08:54 pm SW 6.0 11.1----30.60- 37.0 39.6----